Location: Poughquag
(41.6090°N, 73.6820°W)
Time: 02:34:11
(UTC-04:00)

Transit 4A - Pass Details

Date: 07 June 2020
Orbit: 866 x 978 km, 66.8° (Epoch: 06 July)

Event Time Altitude Azimuth Distance (km) Brightness Sun altitude
Rises 11:38:20 0° 308° (NW) 3,605 10.7 65.5°
Reaches altitude 10° 11:42:51 10° 278° (W) 2,681 10.2 66.1°
Maximum altitude 11:44:49 12° 259° (W) 2,573 10.2 66.3°
Drops below altitude 10° 11:46:48 10° 241° (WSW) 2,694 10.4 66.6°
Sets 11:51:25 0° 210° (SSW) 3,652 11.1 67.1°
